Wiley Ford, WV

10:58 AM EST on February 24, 2017 (GMT -0500)
Greater Cumberland Regional

Weather History for KCBE - December, 2012

Change the Weather History Date:

Tuesday, December 4, 2012

  Actual Average (KMRB) Record (KMRB)
Temperature  
Mean Temperature 56 °F -  
Max Temperature 69 °F 47 °F 77 °F (1982)
Min Temperature 44 °F 29 °F 10 °F (1940)
Degree Days  
Heating Degree Days 8    
Growing Degree Days 6 (Base 50)    
Moisture  
Dew Point 50 °F    
Average Humidity 85    
Maximum Humidity 100    
Minimum Humidity 49    
Precipitation  
Precipitation 0.00 in - - ()
Sea Level Pressure  
Sea Level Pressure 30.17 in    
Wind  
Wind Speed 1 mph (SSW)    
Max Wind Speed 15 mph    
Max Gust Speed 22 mph    
Visibility 6 miles    
Events      
Averages and records for this station are not official NWS values.
T = Trace of Precipitation, MM = Missing Value Source: NWS Daily Summary

Daily Weather History Graph

Daily Weather History Graph

Search for Another Location

Airport or City:

Trip Planner

Search our weather history database for the weather conditions in past years. The results will help you decide how hot, cold, wet, or windy it might be!

Date:

Astronomy

Dec. 04, 2012 Rise Set
Actual Time 7:19 AM EST 4:50 PM EST
Civil Twilight 6:49 AM EST 5:20 PM EST
Nautical Twilight 6:16 AM EST 5:54 PM EST
Astronomical Twilight 5:43 AM EST 6:26 PM EST
Moon 10:35 PM EST (12/4) 11:13 AM EST (12/4)
Length of Visible Light 10h 30m
Length of Day
9h 30m
Waning Gibbous, 69% of the Moon is Illuminated
Dec 4
Waning Gibbous
Dec 6
Last Quarter
Dec 13
New
Dec 20
First Quarter
Dec 28
Full

Hourly Weather History & Observations

Time (EST) Temp. Dew Point Humidity Pressure Visibility Wind Dir Wind Speed Gust Speed Precip Events Conditions
12:17 AM 51.8 °F 51.8 °F 100% 30.24 in 7.0 mi Calm Calm - N/A   Scattered Clouds
12:39 AM 51.8 °F 51.8 °F 100% 30.24 in 5.0 mi Calm Calm - N/A   Clear
1:00 AM 51.8 °F 51.8 °F 100% 30.24 in 5.0 mi Calm Calm - N/A   Clear
1:21 AM 50.0 °F 50.0 °F 100% 30.24 in 0.5 mi Calm Calm - N/A   Unknown
1:43 AM 50.0 °F 50.0 °F 100% 30.25 in 0.8 mi Calm Calm - N/A   Unknown
2:04 AM 50.0 °F 50.0 °F 100% 30.25 in 1.0 mi Calm Calm - N/A   Unknown
2:25 AM 50.0 °F 50.0 °F 100% 30.25 in 0.2 mi Calm Calm - N/A   Mostly Cloudy
2:46 AM 46.4 °F 46.4 °F 100% 30.25 in 0.2 mi Calm Calm - N/A   Overcast
3:08 AM 46.4 °F 46.4 °F 100% 30.25 in 0.2 mi Calm Calm - N/A   Overcast
3:29 AM 46.4 °F 46.4 °F 100% 30.25 in 0.2 mi Calm Calm - N/A   Overcast
3:50 AM 46.4 °F 46.4 °F 100% 30.25 in 0.2 mi Calm Calm - N/A   Overcast
4:12 AM 44.6 °F 44.6 °F 100% 30.25 in 0.2 mi Calm Calm - N/A   Overcast
4:33 AM 44.6 °F 44.6 °F 100% 30.25 in 0.2 mi Calm Calm - N/A   Overcast
4:54 AM 44.6 °F 44.6 °F 100% 30.25 in 0.2 mi Calm Calm - N/A   Overcast
5:15 AM 44.6 °F 44.6 °F 100% 30.24 in 0.2 mi Calm Calm - N/A   Overcast
5:37 AM 44.6 °F 44.6 °F 100% 30.24 in 0.2 mi Calm Calm - N/A   Overcast
5:58 AM 44.6 °F 44.6 °F 100% 30.25 in 0.2 mi Calm Calm - N/A   Overcast
6:19 AM 44.6 °F 44.6 °F 100% 30.25 in 0.2 mi Calm Calm - N/A   Overcast
6:41 AM 44.6 °F 44.6 °F 100% 30.25 in 0.2 mi Calm Calm - N/A   Overcast
7:02 AM 44.6 °F 44.6 °F 100% 30.25 in 0.2 mi Calm Calm - N/A   Overcast
7:23 AM 44.6 °F 44.6 °F 100% 30.25 in 0.2 mi Calm Calm - N/A   Overcast
8:06 AM 44.6 °F 44.6 °F 100% 30.26 in 0.2 mi Calm Calm - N/A   Overcast
8:27 AM 44.6 °F 44.6 °F 100% 30.26 in 0.2 mi Calm Calm - N/A   Overcast
8:48 AM 44.6 °F 44.6 °F 100% 30.26 in 0.2 mi Calm Calm - N/A   Overcast
9:09 AM 46.4 °F 46.4 °F 100% 30.26 in 0.2 mi Calm Calm - N/A   Overcast
9:31 AM 46.4 °F 46.4 °F 100% 30.26 in 0.2 mi Calm Calm - N/A   Overcast
9:52 AM 46.4 °F 46.4 °F 100% 30.26 in 0.2 mi Calm Calm - N/A   Overcast
10:13 AM 46.4 °F 46.4 °F 100% 30.25 in 0.2 mi Calm Calm - N/A   Overcast
10:34 AM 48.2 °F 48.2 °F 100% 30.25 in 0.2 mi Calm Calm - N/A   Overcast
10:56 AM 50.0 °F 50.0 °F 100% 30.23 in 0.5 mi Calm Calm - N/A   Overcast
11:17 AM 51.8 °F 51.8 °F 100% 30.22 in 4.0 mi Calm Calm - N/A   Mostly Cloudy
11:38 AM 53.6 °F 53.6 °F 100% 30.19 in 10.0 mi Calm Calm - N/A   Clear
11:59 AM 59.0 °F 59.0 °F 100% 30.18 in 10.0 mi Calm Calm - N/A   Clear
12:20 PM 60.8 °F 60.8 °F 100% 30.16 in 10.0 mi Calm Calm - N/A   Clear
12:42 PM 60.8 °F 60.8 °F 100% 30.15 in 10.0 mi Calm Calm - N/A   Clear
1:03 PM 64.4 °F 55.4 °F 73% 30.13 in 10.0 mi Calm Calm - N/A   Clear
1:24 PM 66.2 °F 55.4 °F 68% 30.11 in 10.0 mi Calm Calm - N/A   Clear
1:45 PM 69.8 °F 51.8 °F 53% 30.10 in 10.0 mi South 6.9 mph - N/A   Clear
2:49 PM 69.8 °F 50.0 °F 49% 30.09 in 10.0 mi South 9.2 mph - N/A   Clear
3:10 PM 69.8 °F 50.0 °F 49% 30.09 in 10.0 mi South 6.9 mph - N/A   Clear
3:32 PM 68.0 °F 50.0 °F 52% 30.09 in 10.0 mi South 5.8 mph - N/A   Clear
3:53 PM 68.0 °F 50.0 °F 52% 30.09 in 10.0 mi South 3.5 mph - N/A   Scattered Clouds
4:14 PM 68.0 °F 50.0 °F 52% 30.09 in 10.0 mi South 3.5 mph - N/A   Scattered Clouds
4:35 PM 66.2 °F 50.0 °F 56% 30.09 in 10.0 mi South 3.5 mph - N/A   Mostly Cloudy
4:57 PM 66.2 °F 50.0 °F 56% 30.09 in 10.0 mi South 3.5 mph - N/A   Overcast
5:18 PM 68.0 °F 50.0 °F 52% 30.09 in 10.0 mi WSW 4.6 mph - N/A   Overcast
5:39 PM 68.0 °F 50.0 °F 52% 30.08 in 10.0 mi WSW 5.8 mph - N/A   Overcast
6:00 PM 68.0 °F 51.8 °F 56% 30.08 in 10.0 mi SW 10.4 mph 18.4 mph N/A   Mostly Cloudy
6:22 PM 66.2 °F 53.6 °F 64% 30.09 in 10.0 mi WSW 6.9 mph - N/A   Mostly Cloudy
6:43 PM 64.4 °F 53.6 °F 68% 30.09 in 10.0 mi SW 15.0 mph 19.6 mph N/A   Mostly Cloudy
7:04 PM 64.4 °F 53.6 °F 68% 30.09 in 10.0 mi SSW 6.9 mph 21.9 mph N/A   Mostly Cloudy
7:25 PM 64.4 °F 53.6 °F 68% 30.08 in 10.0 mi SSW 5.8 mph - N/A   Overcast
7:46 PM 64.4 °F 53.6 °F 68% 30.07 in 10.0 mi South 6.9 mph - N/A   Mostly Cloudy
8:08 PM 62.6 °F 53.6 °F 72% 30.07 in 10.0 mi South 6.9 mph - N/A   Scattered Clouds
8:29 PM 62.6 °F 55.4 °F 77% 30.06 in 10.0 mi SSW 9.2 mph - N/A   Clear
8:50 PM 62.6 °F 53.6 °F 72% 30.05 in 10.0 mi South 8.1 mph - N/A   Scattered Clouds
9:12 PM 62.6 °F 55.4 °F 77% 30.05 in 10.0 mi SSE 4.6 mph - N/A   Mostly Cloudy
9:33 PM 60.8 °F 55.4 °F 82% 30.04 in 10.0 mi South 3.5 mph - N/A   Mostly Cloudy
9:54 PM 60.8 °F 55.4 °F 82% 30.04 in 10.0 mi SSE 4.6 mph - N/A   Mostly Cloudy
10:15 PM 60.8 °F 55.4 °F 82% 30.04 in 10.0 mi SSE 3.5 mph - N/A   Scattered Clouds
11:19 PM 62.6 °F 53.6 °F 72% 30.03 in 10.0 mi SW 3.5 mph - N/A   Mostly Cloudy
11:41 PM 62.6 °F 53.6 °F 72% 30.03 in 10.0 mi SW 4.6 mph - N/A   Scattered Clouds